When you browse on this site, cookies collect data to enhance your experience and personalize the content and advertising you see.
Visit our Privacy Policy to learn more. By continuing to use the site, you agree to this use of cookies and data.

Hourly Weather Bratskoe

Today, 15 August, Saturday

Time Temperature Precipitation Wind Pressure Humidity
00:00 +11°C° 0 mm 1 mps 741 mmHg 84%
01:00 +11°C° 0 mm 1 mps 741 mmHg 87%
02:00 +10°C° 0 mm 2 mps 741 mmHg 96%
03:00 +10°C° 0 mm 2 mps 741 mmHg 94%
04:00 +10°C° 0 mm 2 mps 741 mmHg 92%
05:00 +10°C° 0 mm 2 mps 741 mmHg 90%
06:00 +12°C° 0.2 mm 2 mps 741 mmHg 89%
07:00 +13°C° 0.2 mm 1 mps 741 mmHg 88%
08:00 +14°C° 0 mm 1 mps 741 mmHg 87%
09:00 +14°C° 0.2 mm 1 mps 741 mmHg 85%
10:00 +15°C° 0.2 mm 1 mps 741 mmHg 83%
11:00 +15°C° 0.2 mm 1 mps 741 mmHg 81%
12:00 +15°C° 0.1 mm 1 mps 741 mmHg 79%
13:00 +16°C° 0.1 mm 1 mps 741 mmHg 78%
14:00 +16°C° 0.1 mm 1 mps 741 mmHg 76%
15:00 +16°C° 0 mm 1 mps 740 mmHg 74%
16:00 +18°C° 0 mm 1 mps 740 mmHg 72%
17:00 +18°C° 0 mm 1 mps 740 mmHg 69%
18:00 +15°C° 0 mm 1 mps 740 mmHg 76%
19:00 +14°C° 0 mm 1 mps 740 mmHg 84%
20:00 +11°C° 0 mm 0 mps 740 mmHg 91%
21:00 +12°C° 0 mm 1 mps 740 mmHg 91%
22:00 +12°C° 0 mm 1 mps 740 mmHg 91%
23:00 +12°C° 0 mm 1 mps 740 mmHg 92%

Tomorrow, 16 August, Sunday

Time Temperature Precipitation Wind Pressure Humidity
00:00 +11°C° 0 mm 1 mps 739 mmHg 93%
01:00 +11°C° 0 mm 1 mps 739 mmHg 95%
02:00 +11°C° 0 mm 1 mps 739 mmHg 96%
03:00 +11°C° 0 mm 1 mps 739 mmHg 96%
04:00 +11°C° 0 mm 1 mps 739 mmHg 97%
05:00 +10°C° 0 mm 2 mps 738 mmHg 97%
06:00 +13°C° 0 mm 2 mps 738 mmHg 92%
07:00 +14°C° 0 mm 2 mps 738 mmHg 88%
08:00 +16°C° 0 mm 2 mps 738 mmHg 83%
09:00 +17°C° 0 mm 3 mps 738 mmHg 79%
10:00 +19°C° 0 mm 3 mps 738 mmHg 75%
11:00 +20°C° 0 mm 3 mps 737 mmHg 70%
12:00 +20°C° 0.4 mm 3 mps 737 mmHg 74%
13:00 +20°C° 0.4 mm 3 mps 737 mmHg 78%
14:00 +19°C° 0.4 mm 3 mps 736 mmHg 83%
15:00 +20°C° 0.1 mm 3 mps 736 mmHg 80%
16:00 +20°C° 0.1 mm 3 mps 736 mmHg 77%
17:00 +21°C° 0.1 mm 3 mps 736 mmHg 74%
18:00 +19°C° 0.1 mm 3 mps 736 mmHg 78%
19:00 +18°C° 0.1 mm 3 mps 735 mmHg 83%
20:00 +16°C° 0.1 mm 3 mps 735 mmHg 88%
21:00 +14°C° 0 mm 3 mps 735 mmHg 88%
22:00 +13°C° 0 mm 3 mps 736 mmHg 88%
23:00 +12°C° 0 mm 3 mps 736 mmHg 88%

Day after tomorrow, 17 August, Monday

Time Temperature Precipitation Wind Pressure Humidity
00:00 +12°C° 0 mm 3 mps 736 mmHg 89%
01:00 +11°C° 0 mm 3 mps 736 mmHg 90%
02:00 +10°C° 0 mm 3 mps 736 mmHg 91%
03:00 +10°C° 0 mm 2 mps 736 mmHg 91%
04:00 +9°C° 0 mm 2 mps 736 mmHg 91%
05:00 +9°C° 0 mm 2 mps 736 mmHg 92%
06:00 +12°C° 0 mm 2 mps 736 mmHg 83%
07:00 +14°C° 0 mm 2 mps 736 mmHg 73%
08:00 +16°C° 0 mm 2 mps 737 mmHg 64%
09:00 +17°C° 0 mm 2 mps 737 mmHg 58%
10:00 +18°C° 0 mm 2 mps 737 mmHg 52%
11:00 +19°C° 0 mm 2 mps 736 mmHg 45%
12:00 +20°C° 0 mm 2 mps 736 mmHg 45%
13:00 +20°C° 0 mm 2 mps 736 mmHg 44%
14:00 +20°C° 0 mm 3 mps 736 mmHg 44%
15:00 +20°C° 0 mm 2 mps 736 mmHg 47%
16:00 +19°C° 0 mm 2 mps 736 mmHg 51%
17:00 +19°C° 0 mm 2 mps 736 mmHg 55%
18:00 +17°C° 0 mm 2 mps 736 mmHg 60%
19:00 +15°C° 0 mm 2 mps 737 mmHg 66%
20:00 +13°C° 0 mm 1 mps 737 mmHg 71%
21:00 +12°C° 0 mm 1 mps 737 mmHg 73%
22:00 +10°C° 0 mm 2 mps 737 mmHg 75%
23:00 +10°C° 0 mm 2 mps 737 mmHg 77%

18 August, Tuesday

Time Temperature Precipitation Wind Pressure Humidity
00:00 +9°C° 0 mm 2 mps 737 mmHg 79%
01:00 +8°C° 0 mm 2 mps 737 mmHg 81%
02:00 +8°C° 0 mm 2 mps 737 mmHg 82%
03:00 +8°C° 0 mm 2 mps 738 mmHg 83%
04:00 +7°C° 0 mm 2 mps 738 mmHg 84%
05:00 +7°C° 0 mm 2 mps 738 mmHg 85%
06:00 +10°C° 0 mm 2 mps 738 mmHg 76%
07:00 +13°C° 0 mm 2 mps 738 mmHg 68%
08:00 +15°C° 0 mm 1 mps 738 mmHg 60%
09:00 +16°C° 0 mm 1 mps 738 mmHg 56%
10:00 +18°C° 0 mm 2 mps 738 mmHg 52%
11:00 +19°C° 0 mm 2 mps 738 mmHg 49%
12:00 +19°C° 0 mm 2 mps 738 mmHg 49%
13:00 +19°C° 0 mm 2 mps 738 mmHg 49%
14:00 +20°C° 0 mm 2 mps 737 mmHg 50%
15:00 +19°C° 0 mm 2 mps 737 mmHg 54%
16:00 +19°C° 0 mm 2 mps 737 mmHg 58%
17:00 +19°C° 0 mm 2 mps 737 mmHg 63%
18:00 +17°C° 0 mm 2 mps 737 mmHg 66%
19:00 +16°C° 0 mm 2 mps 737 mmHg 70%
20:00 +15°C° 0 mm 2 mps 737 mmHg 74%
21:00 +14°C° 0 mm 2 mps 737 mmHg 72%
22:00 +14°C° 0 mm 2 mps 737 mmHg 70%
23:00 +13°C° 0 mm 3 mps 737 mmHg 68%

19 August, Wednesday

Time Temperature Precipitation Wind Pressure Humidity
00:00 +13°C° 0 mm 3 mps 737 mmHg 68%
01:00 +13°C° 0 mm 3 mps 737 mmHg 69%
02:00 +13°C° 0 mm 3 mps 737 mmHg 69%
03:00 +12°C° 0 mm 3 mps 737 mmHg 76%
04:00 +12°C° 0 mm 3 mps 737 mmHg 82%
05:00 +11°C° 0 mm 3 mps 737 mmHg 88%
06:00 +13°C° 0 mm 3 mps 737 mmHg 85%
07:00 +16°C° 0 mm 3 mps 737 mmHg 81%
08:00 +17°C° 0 mm 3 mps 737 mmHg 77%
09:00 +18°C° 0.3 mm 3 mps 737 mmHg 75%
10:00 +20°C° 0.3 mm 3 mps 737 mmHg 73%
11:00 +21°C° 0.3 mm 2 mps 737 mmHg 71%
12:00 +21°C° 1 mm 2 mps 737 mmHg 71%
13:00 +21°C° 1 mm 2 mps 737 mmHg 71%
14:00 +21°C° 1 mm 2 mps 737 mmHg 71%
15:00 +21°C° 0.6 mm 2 mps 736 mmHg 73%
16:00 +21°C° 0.6 mm 2 mps 736 mmHg 76%
17:00 +22°C° 0.6 mm 1 mps 736 mmHg 78%
18:00 +20°C° 0.1 mm 1 mps 736 mmHg 82%
19:00 +17°C° 0.1 mm 2 mps 736 mmHg 85%
20:00 +16°C° 0.1 mm 2 mps 736 mmHg 89%
21:00 +15°C° 0 mm 2 mps 736 mmHg 90%
22:00 +15°C° 0 mm 2 mps 736 mmHg 90%
23:00 +14°C° 0 mm 2 mps 736 mmHg 91%

20 August, Thursday

Time Temperature Precipitation Wind Pressure Humidity
00:00 +14°C° 0 mm 2 mps 736 mmHg 91%
01:00 +13°C° 0 mm 2 mps 736 mmHg 90%
02:00 +13°C° 0 mm 2 mps 736 mmHg 90%
03:00 +13°C° 0 mm 2 mps 736 mmHg 89%
04:00 +12°C° 0 mm 2 mps 736 mmHg 89%
05:00 +12°C° 0 mm 2 mps 736 mmHg 89%
06:00 +14°C° 0 mm 2 mps 736 mmHg 82%
07:00 +16°C° 0 mm 2 mps 736 mmHg 76%
08:00 +17°C° 0 mm 3 mps 736 mmHg 70%
09:00 +19°C° 0 mm 3 mps 736 mmHg 64%
10:00 +21°C° 0 mm 4 mps 737 mmHg 58%
11:00 +22°C° 0 mm 4 mps 737 mmHg 52%
12:00 +23°C° 0 mm 4 mps 736 mmHg 53%
13:00 +23°C° 0 mm 4 mps 736 mmHg 54%
14:00 +23°C° 0 mm 4 mps 736 mmHg 54%
15:00 +22°C° 0.2 mm 4 mps 736 mmHg 62%
16:00 +21°C° 0.2 mm 3 mps 736 mmHg 69%
17:00 +20°C° 0.2 mm 3 mps 736 mmHg 77%
18:00 +19°C° 0 mm 2 mps 736 mmHg 82%
19:00 +18°C° 0 mm 2 mps 736 mmHg 87%
20:00 +17°C° 0 mm 2 mps 735 mmHg 91%
21:00 +17°C° 0 mm 2 mps 735 mmHg 92%
22:00 +17°C° 0 mm 2 mps 735 mmHg 92%
23:00 +16°C° 0 mm 2 mps 735 mmHg 92%
Show more